TimeEDT,TemperatureF,Dew PointF,Humidity,Sea Level PressureIn,VisibilityMPH,Wind Direction,Wind SpeedMPH,Gust SpeedMPH,PrecipitationIn,Events,Conditions,WindDirDegrees,DateUTC
12:55 AM,37.4,35.4,93,29.87,7.0,NW,10.4,-,0.00,Rain,Light Rain,320,2013-03-28 04:55:00
1:55 AM,37.2,35.6,94,29.88,7.0,NNW,11.5,-,0.01,Rain,Light Rain,330,2013-03-28 05:55:00
2:17 AM,37.4,35.6,93,29.87,8.0,NNW,10.4,-,N/A,,Overcast,340,2013-03-28 06:17:00
2:36 AM,37.4,35.6,93,29.87,7.0,NW,9.2,-,N/A,Rain,Light Rain,310,2013-03-28 06:36:00
2:55 AM,36.3,34.7,94,29.87,7.0,NW,8.1,-,0.00,,Overcast,320,2013-03-28 06:55:00
3:55 AM,35.4,34.0,94,29.87,10.0,NW,9.2,-,N/A,,Overcast,320,2013-03-28 07:55:00
4:55 AM,34.2,32.5,94,29.88,10.0,NW,8.1,-,N/A,,Mostly Cloudy,320,2013-03-28 08:55:00
5:55 AM,35.8,33.3,91,29.89,10.0,NNW,5.8,-,N/A,,Mostly Cloudy,330,2013-03-28 09:55:00
6:55 AM,34.3,32.9,94,29.91,10.0,NW,6.9,-,N/A,,Mostly Cloudy,320,2013-03-28 10:55:00
7:55 AM,38.5,34.9,87,29.93,10.0,NNW,6.9,-,N/A,,Mostly Cloudy,330,2013-03-28 11:55:00
8:55 AM,41.0,34.2,77,29.94,10.0,NNW,8.1,-,N/A,,Mostly Cloudy,340,2013-03-28 12:55:00
9:55 AM,45.3,32.4,61,29.94,10.0,NNW,10.4,-,N/A,,Mostly Cloudy,330,2013-03-28 13:55:00
10:55 AM,46.9,27.3,46,29.94,10.0,NNW,12.7,19.6,N/A,,Overcast,330,2013-03-28 14:55:00
11:55 AM,46.6,27.3,47,29.95,10.0,NNW,8.1,-,N/A,,Mostly Cloudy,340,2013-03-28 15:55:00
12:55 PM,45.9,26.6,47,29.95,10.0,NW,8.1,-,N/A,,Overcast,320,2013-03-28 16:55:00
1:55 PM,45.1,29.1,54,29.95,10.0,NE,10.4,-,N/A,,Overcast,40,2013-03-28 17:55:00
2:55 PM,49.3,29.7,47,29.94,10.0,NNW,5.8,-,N/A,,Mostly Cloudy,340,2013-03-28 18:55:00
3:55 PM,47.1,28.9,49,29.94,10.0,East,4.6,-,N/A,,Mostly Cloudy,80,2013-03-28 19:55:00
4:55 PM,45.3,31.1,58,29.94,10.0,South,6.9,-,N/A,,Mostly Cloudy,170,2013-03-28 20:55:00
5:55 PM,46.0,31.3,56,29.94,10.0,SW,6.9,-,N/A,,Mostly Cloudy,230,2013-03-28 21:55:00
6:55 PM,45.7,29.7,54,29.96,10.0,West,3.5,-,N/A,,Mostly Cloudy,280,2013-03-28 22:55:00
7:55 PM,43.2,27.3,54,29.98,10.0,West,4.6,-,N/A,,Mostly Cloudy,280,2013-03-28 23:55:00
8:55 PM,41.5,28.8,60,29.99,10.0,WSW,4.6,-,N/A,,Mostly Cloudy,250,2013-03-29 00:55:00
9:55 PM,40.8,29.7,64,30.00,10.0,West,4.6,-,N/A,,Mostly Cloudy,270,2013-03-29 01:55:00
10:55 PM,40.6,31.1,69,29.99,10.0,WSW,3.5,-,N/A,,Mostly Cloudy,250,2013-03-29 02:55:00
11:55 PM,38.7,30.0,71,30.00,10.0,WSW,3.5,-,N/A,,Partly Cloudy,240,2013-03-29 03:55:00